When you browse on this site, cookies collect data to enhance your experience and personalize the content and advertising you see.
Visit our Privacy Policy to learn more. By continuing to use the site, you agree to this use of cookies and data.
  • In Latvia
  • List of Countries
  • For 7 days
  • Water Temperature
  • Weather Map
  • Weather Widgets
  • user-avatar
    Login

    Hourly Weather Tulsa

    Today, 17 January, Friday

    Time Temperature Precipitation Wind Pressure Humidity
    00:00 0°C° 0 mm 5 mps 754 mmHg 91%
    01:00 0°C° 2.6 mm 5 mps 753 mmHg 92%
    02:00 0°C° 2.6 mm 5 mps 753 mmHg 94%
    03:00 -1°C° 2.6 mm 5 mps 752 mmHg 95%
    04:00 -1°C° 1.8 mm 5 mps 751 mmHg 96%
    05:00 -1°C° 1.8 mm 4 mps 751 mmHg 96%
    06:00 -1°C° 1.8 mm 4 mps 751 mmHg 97%
    07:00 -1°C° 1.1 mm 5 mps 751 mmHg 97%
    08:00 -1°C° 1.1 mm 5 mps 750 mmHg 97%
    09:00 -2°C° 1.1 mm 6 mps 750 mmHg 97%
    10:00 -1°C° 0.8 mm 6 mps 749 mmHg 97%
    11:00 -1°C° 0.8 mm 6 mps 749 mmHg 97%
    12:00 -1°C° 0.8 mm 7 mps 748 mmHg 97%
    13:00 +1°C° 1.1 mm 6 mps 747 mmHg 98%
    14:00 +1°C° 1.1 mm 5 mps 746 mmHg 98%
    15:00 +2°C° 1.1 mm 5 mps 745 mmHg 99%
    16:00 +2°C° 2 mm 5 mps 744 mmHg 99%
    17:00 +3°C° 2 mm 6 mps 743 mmHg 99%
    18:00 +4°C° 2 mm 7 mps 743 mmHg 98%
    19:00 +5°C° 0.6 mm 7 mps 742 mmHg 98%
    20:00 +6°C° 0.6 mm 7 mps 742 mmHg 97%
    21:00 +9°C° 0.6 mm 7 mps 741 mmHg 96%
    22:00 +10°C° 0.5 mm 7 mps 741 mmHg 95%
    23:00 +10°C° 0.5 mm 7 mps 740 mmHg 94%

    Tomorrow, 18 January, Saturday

    Time Temperature Precipitation Wind Pressure Humidity
    00:00 +11°C° 0.5 mm 7 mps 740 mmHg 93%
    01:00 +10°C° 0 mm 7 mps 741 mmHg 88%
    02:00 +9°C° 0 mm 7 mps 741 mmHg 83%
    03:00 +8°C° 0 mm 7 mps 742 mmHg 78%
    04:00 +6°C° 0 mm 7 mps 743 mmHg 75%
    05:00 +4°C° 0 mm 7 mps 745 mmHg 71%
    06:00 +2°C° 0 mm 7 mps 746 mmHg 68%
    07:00 +2°C° 0 mm 7 mps 747 mmHg 65%
    08:00 +2°C° 0 mm 7 mps 749 mmHg 63%
    09:00 +2°C° 0 mm 7 mps 750 mmHg 61%
    10:00 +2°C° 0 mm 7 mps 750 mmHg 55%
    11:00 +2°C° 0 mm 8 mps 751 mmHg 49%
    12:00 +4°C° 0 mm 8 mps 752 mmHg 44%
    13:00 +5°C° 0 mm 7 mps 751 mmHg 43%
    14:00 +5°C° 0 mm 7 mps 751 mmHg 42%
    15:00 +7°C° 0 mm 6 mps 750 mmHg 42%
    16:00 +6°C° 0 mm 5 mps 751 mmHg 46%
    17:00 +5°C° 0 mm 4 mps 751 mmHg 50%
    18:00 +5°C° 0 mm 2 mps 752 mmHg 54%
    19:00 +4°C° 0 mm 2 mps 752 mmHg 56%
    20:00 +4°C° 0 mm 2 mps 753 mmHg 57%
    21:00 +3°C° 0 mm 2 mps 753 mmHg 58%
    22:00 +3°C° 0 mm 2 mps 753 mmHg 59%
    23:00 +3°C° 0 mm 1 mps 753 mmHg 59%

    Day after tomorrow, 19 January, Sunday

    Time Temperature Precipitation Wind Pressure Humidity
    00:00 +3°C° 0 mm 1 mps 754 mmHg 60%
    01:00 +3°C° 0 mm 1 mps 754 mmHg 59%
    02:00 +2°C° 0 mm 1 mps 753 mmHg 59%
    03:00 +2°C° 0 mm 1 mps 753 mmHg 58%
    04:00 +2°C° 0 mm 1 mps 753 mmHg 58%
    05:00 +2°C° 0 mm 1 mps 753 mmHg 58%
    06:00 +2°C° 0 mm 1 mps 753 mmHg 58%
    07:00 +2°C° 0 mm 1 mps 754 mmHg 56%
    08:00 +3°C° 0 mm 1 mps 754 mmHg 54%
    09:00 +3°C° 0 mm 1 mps 754 mmHg 52%
    10:00 +4°C° 0 mm 1 mps 754 mmHg 49%
    11:00 +6°C° 0 mm 1 mps 754 mmHg 46%
    12:00 +7°C° 0 mm 1 mps 754 mmHg 42%
    13:00 +8°C° 0 mm 1 mps 754 mmHg 42%
    14:00 +8°C° 0 mm 2 mps 753 mmHg 41%
    15:00 +9°C° 0 mm 2 mps 753 mmHg 41%
    16:00 +8°C° 0 mm 2 mps 753 mmHg 46%
    17:00 +7°C° 0 mm 2 mps 753 mmHg 50%
    18:00 +7°C° 0 mm 1 mps 753 mmHg 55%
    19:00 +5°C° 0 mm 2 mps 753 mmHg 57%
    20:00 +5°C° 0 mm 2 mps 753 mmHg 59%
    21:00 +4°C° 0 mm 2 mps 753 mmHg 60%
    22:00 +4°C° 0 mm 2 mps 753 mmHg 64%
    23:00 +3°C° 0 mm 2 mps 754 mmHg 67%

    20 January, Monday

    Time Temperature Precipitation Wind Pressure Humidity
    00:00 +2°C° 0 mm 3 mps 754 mmHg 70%
    01:00 0°C° 0 mm 3 mps 754 mmHg 71%
    02:00 -1°C° 0 mm 3 mps 754 mmHg 72%
    03:00 -3°C° 0 mm 4 mps 753 mmHg 74%
    04:00 -4°C° 0 mm 4 mps 754 mmHg 71%
    05:00 -4°C° 0 mm 3 mps 754 mmHg 68%
    06:00 -5°C° 0 mm 3 mps 754 mmHg 66%
    07:00 -5°C° 0 mm 4 mps 754 mmHg 62%
    08:00 -4°C° 0 mm 4 mps 754 mmHg 59%
    09:00 -4°C° 0 mm 4 mps 755 mmHg 56%
    10:00 -3°C° 0 mm 4 mps 755 mmHg 52%
    11:00 -2°C° 0 mm 4 mps 755 mmHg 48%
    12:00 0°C° 0 mm 5 mps 755 mmHg 44%
    13:00 0°C° 0 mm 5 mps 755 mmHg 44%
    14:00 0°C° 0 mm 5 mps 755 mmHg 44%
    15:00 0°C° 0 mm 4 mps 754 mmHg 43%
    16:00 -1°C° 0 mm 4 mps 755 mmHg 45%
    17:00 -1°C° 0 mm 4 mps 755 mmHg 47%
    18:00 -2°C° 0 mm 4 mps 755 mmHg 49%
    19:00 -3°C° 0 mm 4 mps 756 mmHg 48%
    20:00 -4°C° 0 mm 4 mps 756 mmHg 47%
    21:00 -4°C° 0 mm 4 mps 757 mmHg 46%
    22:00 -5°C° 0 mm 4 mps 757 mmHg 46%
    23:00 -5°C° 0 mm 4 mps 757 mmHg 47%

    21 January, Tuesday

    Time Temperature Precipitation Wind Pressure Humidity
    00:00 -6°C° 0 mm 5 mps 757 mmHg 47%
    01:00 -7°C° 0 mm 4 mps 757 mmHg 48%
    02:00 -7°C° 0 mm 4 mps 756 mmHg 48%
    03:00 -7°C° 0 mm 4 mps 756 mmHg 49%
    04:00 -7°C° 0 mm 4 mps 756 mmHg 50%
    05:00 -6°C° 0 mm 3 mps 756 mmHg 51%
    06:00 -6°C° 0 mm 3 mps 756 mmHg 51%
    07:00 -6°C° 0 mm 3 mps 756 mmHg 51%
    08:00 -4°C° 0 mm 2 mps 756 mmHg 51%
    09:00 -4°C° 0 mm 2 mps 756 mmHg 50%
    10:00 -2°C° 0 mm 3 mps 755 mmHg 49%
    11:00 -1°C° 0 mm 3 mps 754 mmHg 49%
    12:00 +1°C° 0 mm 3 mps 753 mmHg 48%
    13:00 +2°C° 0 mm 3 mps 753 mmHg 50%
    14:00 +3°C° 0 mm 3 mps 752 mmHg 53%
    15:00 +5°C° 0 mm 4 mps 751 mmHg 55%
    16:00 +4°C° 0 mm 3 mps 750 mmHg 61%
    17:00 +3°C° 0 mm 3 mps 750 mmHg 66%
    18:00 +2°C° 0 mm 3 mps 750 mmHg 71%
    19:00 +1°C° 0 mm 4 mps 749 mmHg 72%
    20:00 +1°C° 0 mm 4 mps 749 mmHg 72%
    21:00 +1°C° 0 mm 4 mps 748 mmHg 72%
    22:00 +1°C° 0.2 mm 5 mps 748 mmHg 75%
    23:00 0°C° 0.2 mm 5 mps 747 mmHg 78%

    22 January, Wednesday

    Time Temperature Precipitation Wind Pressure Humidity
    00:00 -1°C° 0.2 mm 6 mps 747 mmHg 81%
    01:00 -1°C° 0.4 mm 6 mps 746 mmHg 83%
    02:00 -1°C° 0.4 mm 6 mps 746 mmHg 85%
    03:00 -1°C° 0.4 mm 6 mps 745 mmHg 88%
    04:00 -1°C° 0.3 mm 7 mps 745 mmHg 89%
    05:00 -1°C° 0.3 mm 7 mps 744 mmHg 89%
    06:00 -1°C° 0.3 mm 7 mps 743 mmHg 90%
    07:00 0°C° 0.3 mm 7 mps 743 mmHg 90%
    08:00 0°C° 0.3 mm 7 mps 743 mmHg 90%
    09:00 +1°C° 0.3 mm 6 mps 743 mmHg 91%
    10:00 0°C° 0.4 mm 7 mps 742 mmHg 90%
    11:00 0°C° 0.4 mm 8 mps 742 mmHg 89%
    12:00 +1°C° 0.4 mm 8 mps 742 mmHg 89%
    13:00 +1°C° 0.2 mm 8 mps 741 mmHg 88%
    14:00 +2°C° 0.2 mm 8 mps 740 mmHg 88%
    15:00 +3°C° 0.2 mm 7 mps 739 mmHg 88%
    16:00 +3°C° 0 mm 7 mps 739 mmHg 88%
    17:00 +3°C° 0 mm 7 mps 738 mmHg 89%
    18:00 +3°C° 0 mm 7 mps 738 mmHg 90%
    19:00 +3°C° 0.6 mm 7 mps 738 mmHg 90%
    20:00 +4°C° 0.6 mm 8 mps 738 mmHg 91%
    21:00 +4°C° 0.6 mm 8 mps 737 mmHg 92%
    22:00 +4°C° 0.9 mm 8 mps 737 mmHg 92%
    23:00 +4°C° 0.9 mm 7 mps 737 mmHg 92%
    Show more